Wind_Speed
3 3 5 8 10 7 2 2 4 5 6 7 9 9 9 8 8 7 7 5 4 4 4 4 5 5 6 8 7 7 10 12 14 15 14 15 15 15 17 17 17 22 21 21 23
5 4 3 4 7 9 7 4 6 7 8 7 5 6 8 8 7 7 7 7 6 6 6 5 5 6 6 7 7 7 7 10 15 17 17 17 17 18 17 17 21 24 22 22 24
6 6 5 3 3 3 5 6 7 9 9 8 5 5 6 7 7 7 7 7 7 6 7 8 8 8 7 7 8 9 8 9 11 14 16 16 16 16 15 17 22 27 20 22 23
8 8 7 5 4 2 3 4 6 8 11 13 7 4 5 7 7 7 7 7 6 6 7 7 7 7 7 7 8 9 10 10 10 11 11 12 15 14 15 18 22 26 21 24 23
8 9 9 7 7 5 5 4 4 7 9 13 12 5 5 6 7 7 7 7 7 6 7 7 6 6 7 8 9 10 11 10 9 8 9 12 14 12 17 19 17 19 24 25 22
6 8 9 10 10 8 7 7 6 6 7 9 11 11 7 7 8 7 7 7 7 7 7 7 6 6 7 8 9 11 12 12 9 9 9 11 12 13 14 13 10 17 24 23 21
9 9 11 12 11 11 10 8 6 5 6 7 8 11 9 9 9 9 8 9 8 8 7 7 7 7 8 9 10 11 11 12 10 11 11 10 10 12 13 11 9 15 21 22 22
9 12 13 12 11 12 12 11 9 6 6 7 7 8 10 10 11 10 9 9 8 9 8 8 9 9 8 9 9 11 11 10 11 12 12 12 9 8 7 6 7 15 18 20 20
9 9 8 7 8 9 11 10 10 9 7 8 8 8 10 10 12 12 12 10 8 8 9 9 9 10 9 9 10 10 11 12 10 11 12 12 8 6 7 8 10 19 20 21 23
6 6 6 8 8 9 11 10 8 9 9 10 10 11 12 12 14 14 14 13 10 9 9 9 9 9 8 8 9 11 12 12 12 12 11 12 11 10 8 8 9 22 22 21 22
7 6 6 7 8 9 10 10 10 11 12 13 15 16 16 16 16 16 16 15 13 12 11 9 8 8 8 8 8 9 11 13 12 13 12 11 12 9 9 9 11 14 26 24 24
10 10 10 10 10 9 10 11 13 14 15 17 19 20 19 18 17 17 17 17 16 15 14 11 9 10 10 10 10 10 12 13 14 14 13 13 12 13 11 11 11 12 20 28 26
13 14 15 16 15 15 16 18 19 21 21 21 22 22 22 21 19 18 19 18 17 16 16 15 15 14 14 13 13 13 14 14 16 15 14 14 13 14 14 14 13 13 13 22 28
15 16 17 18 19 20 21 22 23 24 23 23 23 23 22 21 20 19 18 17 18 18 17 18 18 19 19 18 18 18 19 18 19 20 20 18 16 14 16 16 15 15 15 15 19
16 17 18 19 20 21 22 23 24 23 24 22 21 20 20 20 19 17 18 18 19 19 20 20 21 22 22 23 23 23 23 23 23 23 22 24 23 18 19 19 19 19 17 17 18
19 20 21 21 22 22 23 24 25 24 23 21 21 21 21 22 22 21 21 22 23 23 23 23 24 25 26 26 27 28 28 28 28 28 28 27 27 26 21 21 21 21 22 21 21
21 20 19 19 19 20 21 22 21 21 21 20 20 21 22 22 22 22 23 23 25 25 26 28 28 28 30 31 33 33 34 34 35 32 31 31 31 29 28 24 24 24 24 25 25
14 15 17 16 16 16 17 17 17 17 18 18 19 21 21 22 23 23 25 25 25 26 27 28 29 30 31 31 32 33 33 33 35 35 36 34 34 31 31 30 28 27 27 27 27
15 14 15 16 17 19 20 22 23 22 23 24 23 24 24 25 26 26 27 28 27 28 29 29 29 31 31 31 31 31 31 31 32 34 36 38 37 35 33 33 33 33 32 31 29
17 17 18 20 22 24 25 26 26 26 25 25 26 27 28 29 29 30 30 29 30 30 31 31 32 31 33 33 33 33 33 33 33 35 36 37 37 38 35 35 35 36 35 32 31
19 23 25 25 27 29 30 30 28 26 25 24 24 26 28 30 31 32 32 31 31 30 31 32 33 32 33 35 36 36 37 37 37 36 37 40 40 37 37 37 37 38 38 35 34
22 24 27 29 31 32 31 30 28 26 26 25 27 27 29 31 32 32 31 32 32 31 31 31 35 33 33 35 36 37 38 37 39 39 39 40 43 42 41 39 39 39 40 40 39
25 25 27 29 29 29 29 28 27 26 27 27 28 29 31 31 32 32 32 32 32 32 34 34 36 38 37 37 36 37 37 39 40 42 42 44 45 43 43 43 43 44 44 44 43
28 29 31 31 30 30 29 29 30 29 29 30 30 30 31 31 32 34 34 35 35 35 37 39 40 43 43 43 44 42 42 43 45 45 45 45 45 46 46 46 45 45 47 48 47
31 33 34 35 34 33 32 32 31 32 32 32 32 32 33 34 34 35 37 37 38 39 40 42 44 44 45 46 47 47 46 45 46 47 48 46 47 48 48 48 49 50 49 48 48
32 34 36 37 37 36 35 33 32 32 32 33 34 35 35 35 36 37 38 40 41 43 45 46 46 47 47 48 48 47 49 48 47 47 48 49 48 49 51 51 51 53 53 52 52
35 37 36 37 36 36 34 32 32 33 33 35 35 35 34 34 36 37 39 41 43 45 46 48 48 49 50 49 47 49 47 47 47 46 47 47 48 50 52 53 54 55 56 57 57
Wind_Direction
254 304 345 4 18 26 328 334 333 339 350 5 16 27 31 36 38 33 28 20 20 27 19 359 341 338 333 331 318 292 271 258 251 251 252 257 264 263 266 267 258 251 248 243 236
258 270 309 348 9 22 25 334 321 326 320 321 341 5 24 22 22 22 25 25 18 10 358 357 349 341 320 319 326 326 299 268 261 265 267 267 270 274 272 267 255 252 237 231 223
254 254 270 293 335 34 40 28 27 20 6 341 306 328 6 14 15 11 11 12 13 6 358 7 5 359 354 345 337 331 322 312 289 278 279 284 289 287 286 274 261 248 225 220 215
254 247 253 272 286 299 325 356 5 9 13 13 356 304 338 1 1 2 1 358 358 354 358 8 6 355 358 3 9 352 329 320 313 302 296 304 307 302 288 281 264 239 209 209 210
258 252 249 264 279 276 267 291 323 346 5 13 15 352 327 339 338 348 350 346 349 347 348 357 356 348 348 353 3 8 355 335 329 319 318 312 313 298 298 311 280 251 207 204 203
265 258 251 257 266 271 269 274 289 316 339 0 8 7 355 344 333 334 337 336 333 338 342 343 340 333 330 341 347 353 360 355 345 341 325 323 321 301 315 305 265 234 204 201 200
261 267 263 259 263 265 266 268 276 299 314 322 342 0 359 348 347 339 332 328 326 324 322 333 329 325 321 328 331 339 349 358 353 344 339 335 327 322 329 323 263 211 200 200 201
276 270 268 264 262 261 262 263 260 276 294 311 312 318 334 335 335 332 329 328 322 317 316 309 307 312 321 322 322 324 334 347 350 351 352 347 344 346 315 303 221 201 203 207 203
272 271 276 276 262 263 264 267 255 263 277 295 294 299 299 306 310 311 315 318 320 314 309 306 306 306 312 314 319 317 318 324 330 346 352 343 348 316 304 279 216 203 212 210 206
276 281 284 278 272 270 269 268 261 261 269 277 279 284 290 294 292 295 299 306 306 303 304 302 301 303 312 315 314 315 316 316 317 325 332 323 326 319 316 292 255 211 216 219 217
277 280 282 282 272 266 261 263 266 268 266 272 277 280 281 288 289 292 293 294 297 295 292 290 288 293 305 312 316 320 327 322 321 313 310 305 301 302 301 297 278 238 218 221 223
270 267 266 265 261 259 258 261 265 268 273 277 279 281 284 286 286 289 292 290 291 288 283 280 279 284 289 293 300 309 319 322 325 321 307 294 286 291 288 281 278 266 229 224 226
276 274 270 269 267 266 266 267 268 270 273 276 279 280 283 282 280 281 284 284 282 284 279 278 281 284 283 289 295 301 304 308 309 310 311 306 296 284 282 279 264 256 246 232 230
275 276 275 274 275 272 273 273 273 273 275 278 278 277 276 275 277 278 278 278 276 273 273 275 278 279 281 285 290 294 299 301 302 302 304 304 303 295 281 273 269 262 252 243 240
272 274 276 276 276 276 274 274 273 275 276 276 274 273 274 275 277 279 278 277 275 274 273 276 277 280 280 281 284 287 290 293 295 297 297 297 298 294 292 284 271 267 261 255 247
282 281 280 279 279 279 279 278 278 277 276 273 273 272 273 274 275 275 276 275 275 276 276 276 276 277 278 278 279 281 284 285 286 290 290 290 291 293 293 285 279 267 262 257 254
288 288 289 288 285 284 281 281 280 277 276 274 275 275 274 273 271 273 272 273 275 276 277 277 277 276 277 278 280 282 284 286 284 284 285 285 285 285 287 283 278 275 266 260 257
279 289 292 289 289 288 288 286 288 285 279 279 279 279 277 277 276 273 273 273 273 275 274 277 280 279 280 281 281 282 284 284 285 286 285 282 280 281 280 280 276 273 272 270 264
281 282 286 288 291 294 295 294 292 282 284 282 282 282 282 279 278 277 276 276 278 278 279 280 280 282 284 285 284 284 285 284 282 281 281 281 280 279 278 276 276 276 275 276 274
277 281 285 290 290 293 294 292 290 284 280 279 280 284 284 282 281 280 280 281 279 279 277 278 280 282 283 284 285 286 285 284 282 281 279 279 279 278 278 276 274 275 277 276 274
278 288 288 288 291 293 294 293 291 287 282 284 286 288 287 286 285 284 284 282 281 280 281 282 283 284 284 284 284 285 285 284 283 281 281 281 279 277 273 272 272 271 271 272 269
275 280 285 290 295 299 299 295 289 281 278 281 282 282 283 284 284 284 285 286 286 287 288 288 288 290 287 287 287 286 285 284 282 281 279 277 276 277 275 270 268 266 266 267 268
273 279 286 292 295 301 299 292 288 280 277 277 279 284 287 287 287 287 288 288 290 291 292 292 291 290 290 288 287 286 285 283 281 278 275 275 277 277 276 275 272 269 267 265 264
275 280 284 286 293 293 291 286 282 277 276 278 281 282 283 285 288 289 288 286 286 288 288 288 289 288 288 288 287 287 285 283 281 279 278 275 274 273 273 272 271 270 268 267 265
279 281 286 288 289 288 285 280 277 275 276 277 279 281 283 284 285 286 285 285 285 286 287 287 287 288 288 286 285 285 285 285 284 281 279 277 275 274 272 272 272 270 268 267 268
281 286 285 286 285 284 280 277 277 277 276 277 279 281 282 282 281 282 282 284 286 286 287 286 287 285 285 287 287 286 284 284 284 282 281 278 275 273 272 271 270 270 270 269 268
285 289 286 284 281 279 276 275 277 278 278 279 280 281 281 281 281 282 283 285 286 287 288 288 289 289 287 286 286 285 287 285 283 281 281 278 276 275 274 273 271 269 269 269 270
Height
5859 5858 5857 5855 5854 5853 5854 5853 5853 5852 5851 5850 5849 5847 5846 5845 5845 5844 5843 5843 5842 5840 5840 5839 5838 5838 5837 5837 5836 5835 5835 5835 5835 5835 5837 5839 5840 5841 5841 5841 5840 5840 5841 5842 5843
5858 5858 5857 5857 5856 5855 5855 5854 5853 5851 5850 5850 5849 5848 5847 5846 5845 5844 5844 5842 5841 5840 5840 5839 5839 5838 5837 5837 5836 5834 5834 5833 5833 5833 5833 5835 5835 5835 5836 5835 5833 5833 5836 5837 5839
5857 5858 5858 5857 5857 5856 5856 5855 5853 5852 5850 5849 5848 5848 5848 5846 5846 5844 5843 5842 5841 5841 5840 5839 5838 5838 5837 5836 5835 5833 5832 5832 5831 5831 5830 5830 5831 5831 5831 5830 5828 5827 5831 5833 5835
5856 5857 5857 5857 5857 5856 5856 5855 5854 5853 5851 5849 5847 5848 5848 5847 5847 5844 5843 5842 5842 5841 5840 5839 5839 5838 5837 5835 5834 5833 5831 5830 5830 5829 5828 5828 5828 5828 5826 5824 5822 5822 5826 5829 5831
5854 5855 5855 5856 5856 5856 5855 5855 5854 5853 5851 5850 5848 5848 5848 5847 5846 5844 5843 5843 5842 5841 5840 5839 5838 5837 5836 5834 5833 5832 5830 5829 5828 5828 5827 5826 5826 5824 5822 5820 5818 5820 5822 5825 5829
5852 5853 5854 5854 5855 5855 5854 5854 5853 5853 5852 5851 5849 5848 5847 5847 5846 5844 5844 5842 5841 5841 5839 5839 5838 5837 5835 5834 5832 5831 5829 5828 5827 5827 5826 5825 5823 5821 5820 5818 5816 5817 5820 5824 5827
5850 5851 5852 5852 5853 5853 5853 5852 5852 5852 5851 5851 5850 5848 5847 5847 5845 5844 5843 5842 5841 5840 5839 5838 5837 5836 5835 5833 5832 5830 5829 5827 5826 5824 5824 5823 5822 5820 5819 5817 5816 5818 5820 5823 5826
5847 5848 5849 5850 5850 5850 5850 5851 5850 5850 5850 5850 5849 5848 5847 5846 5844 5843 5842 5841 5840 5839 5838 5837 5836 5835 5834 5832 5831 5829 5828 5826 5825 5823 5823 5822 5821 5819 5818 5816 5815 5818 5821 5823 5826
5847 5847 5847 5848 5848 5848 5848 5849 5848 5848 5848 5848 5848 5847 5846 5845 5844 5842 5841 5840 5839 5838 5837 5836 5835 5834 5833 5831 5830 5828 5826 5825 5824 5823 5822 5821 5820 5818 5817 5816 5815 5816 5818 5820 5822
5845 5846 5846 5846 5846 5846 5847 5847 5847 5847 5846 5846 5845 5846 5844 5844 5842 5841 5840 5839 5838 5836 5836 5834 5833 5832 5831 5830 5829 5827 5825 5824 5823 5823 5822 5820 5819 5817 5816 5815 5814 5816 5817 5819 5820
5844 5844 5844 5844 5844 5844 5845 5845 5846 5846 5844 5843 5843 5843 5841 5841 5840 5839 5838 5837 5836 5835 5834 5833 5832 5831 5829 5828 5827 5826 5824 5823 5822 5821 5820 5819 5818 5817 5815 5814 5813 5813 5814 5816 5818
5842 5842 5842 5842 5842 5842 5842 5842 5842 5842 5841 5840 5840 5839 5838 5838 5837 5836 5836 5836 5834 5833 5832 5832 5831 5830 5828 5827 5826 5824 5823 5822 5821 5819 5819 5817 5816 5814 5813 5812 5811 5811 5811 5813 5815
5841 5841 5840 5840 5840 5840 5839 5839 5838 5838 5838 5837 5836 5835 5835 5835 5834 5833 5833 5831 5831 5830 5829 5830 5829 5828 5827 5826 5824 5823 5822 5821 5820 5819 5817 5815 5813 5812 5811 5809 5809 5808 5808 5809 5811
5838 5838 5838 5837 5838 5836 5835 5835 5834 5833 5834 5834 5833 5831 5830 5829 5830 5829 5828 5829 5827 5827 5826 5826 5825 5824 5824 5823 5822 5821 5820 5819 5817 5816 5814 5813 5812 5809 5807 5806 5806 5805 5804 5805 5806
5834 5833 5833 5833 5832 5832 5832 5830 5829 5829 5829 5829 5828 5826 5825 5826 5826 5826 5825 5824 5823 5823 5823 5822 5821 5820 5820 5819 5818 5817 5816 5815 5814 5813 5812 5809 5808 5806 5805 5803 5802 5801 5800 5800 5801
5830 5829 5829 5828 5828 5827 5826 5826 5825 5826 5824 5824 5823 5822 5822 5820 5820 5820 5820 5820 5819 5818 5818 5817 5816 5815 5814 5813 5812 5811 5810 5809 5808 5808 5807 5805 5804 5802 5802 5800 5797 5796 5796 5795 5795
5826 5826 5825 5824 5824 5823 5822 5822 5822 5820 5820 5820 5818 5817 5816 5816 5815 5815 5814 5813 5813 5813 5813 5812 5811 5809 5808 5807 5806 5804 5803 5802 5802 5801 5801 5799 5799 5799 5797 5795 5794 5792 5791 5790 5790
5821 5822 5822 5821 5820 5819 5819 5819 5818 5817 5815 5815 5814 5813 5812 5811 5810 5810 5808 5808 5807 5806 5805 5805 5804 5803 5802 5800 5799 5797 5797 5796 5793 5794 5793 5791 5791 5793 5791 5790 5789 5788 5787 5786 5785
5818 5817 5818 5818 5817 5816 5816 5815 5813 5812 5811 5810 5809 5807 5807 5806 5805 5804 5802 5802 5801 5800 5799 5797 5797 5795 5794 5793 5792 5790 5789 5788 5786 5785 5784 5784 5785 5785 5785 5784 5783 5782 5781 5781 5780
5814 5814 5813 5813 5812 5811 5811 5809 5807 5805 5803 5803 5802 5802 5801 5800 5799 5797 5796 5796 5794 5793 5791 5790 5789 5789 5787 5786 5784 5783 5782 5781 5779 5777 5776 5775 5775 5775 5777 5776 5775 5774 5773 5774 5773
5809 5811 5809 5809 5807 5805 5804 5802 5801 5799 5798 5798 5796 5795 5794 5793 5791 5789 5788 5787 5785 5784 5782 5781 5781 5782 5780 5778 5776 5775 5774 5773 5772 5771 5768 5767 5767 5767 5767 5766 5766 5765 5764 5764 5764
5801 5803 5803 5802 5802 5799 5797 5795 5794 5792 5791 5791 5789 5788 5786 5784 5782 5780 5780 5779 5777 5775 5773 5772 5771 5772 5771 5768 5767 5766 5765 5764 5762 5762 5760 5758 5758 5757 5757 5757 5756 5755 5754 5754 5754
5796 5796 5796 5796 5794 5791 5789 5789 5787 5786 5784 5783 5781 5780 5779 5777 5776 5774 5772 5771 5768 5766 5764 5763 5762 5761 5761 5761 5759 5757 5756 5754 5752 5750 5749 5748 5748 5746 5746 5746 5746 5745 5744 5743 5744
5789 5788 5788 5786 5785 5783 5781 5781 5780 5778 5777 5775 5774 5773 5771 5770 5767 5765 5764 5762 5760 5759 5757 5754 5753 5752 5751 5749 5747 5746 5745 5743 5741 5739 5738 5737 5737 5735 5735 5734 5735 5734 5732 5731 5731
5781 5780 5779 5779 5777 5775 5774 5772 5771 5770 5769 5767 5766 5764 5763 5761 5759 5758 5755 5753 5752 5750 5748 5745 5743 5742 5739 5737 5736 5735 5734 5730 5727 5727 5725 5728 5725 5723 5721 5721 5720 5719 5719 5719 5719
5772 5772 5770 5769 5767 5766 5764 5764 5762 5761 5760 5759 5757 5755 5753 5752 5750 5748 5746 5744 5743 5740 5737 5735 5732 5730 5729 5725 5723 5723 5721 5720 5718 5714 5712 5711 5710 5709 5708 5706 5706 5703 5704 5704 5705
5762 5761 5760 5759 5758 5757 5756 5754 5753 5752 5751 5749 5748 5746 5744 5742 5740 5738 5736 5733 5731 5729 5725 5723 5720 5718 5717 5714 5711 5710 5709 5706 5704 5702 5700 5698 5696 5694 5692 5691 5689 5689 5688 5688 5688